When you browse on this site, cookies collect data to enhance your experience and personalize the content and advertising you see.
Visit our Privacy Policy to learn more. By continuing to use the site, you agree to this use of cookies and data.
  • In Deutschland
  • Länderverzeichnis
  • Für 7 Tage
  • Wassertemperatur
  • Satellitenkarten
  • Wetterkarte
  • Widgets
  • user-avatar
    Anmelden

    Stündliche Wetter Albany

    Heute, 20 Juli, Samstag

    Zeit Temperatur Niederschläge Wind Luftdruck Luftfeuchtigkeit
    00:00 +8°C° 0.5 mm 7 m/S 750 mmHg 88%
    01:00 +8°C° 0.5 mm 7 m/S 750 mmHg 88%
    02:00 +8°C° 0 mm 7 m/S 750 mmHg 88%
    03:00 +8°C° 0.3 mm 7 m/S 751 mmHg 88%
    04:00 +8°C° 0.3 mm 6 m/S 751 mmHg 88%
    05:00 +7°C° 0.3 mm 6 m/S 751 mmHg 89%
    06:00 +8°C° 0.1 mm 7 m/S 752 mmHg 87%
    07:00 +8°C° 0.1 mm 7 m/S 753 mmHg 86%
    08:00 +7°C° 0 mm 8 m/S 754 mmHg 85%
    09:00 +10°C° 0.1 mm 9 m/S 755 mmHg 79%
    10:00 +11°C° 0.1 mm 9 m/S 755 mmHg 74%
    11:00 +12°C° 0.1 mm 9 m/S 756 mmHg 68%
    12:00 +12°C° 0.1 mm 9 m/S 755 mmHg 68%
    13:00 +12°C° 0.1 mm 8 m/S 755 mmHg 68%
    14:00 +13°C° 0.1 mm 8 m/S 754 mmHg 68%
    15:00 +12°C° 0.1 mm 8 m/S 754 mmHg 70%
    16:00 +12°C° 0.1 mm 8 m/S 755 mmHg 71%
    17:00 +12°C° 0.1 mm 8 m/S 755 mmHg 72%
    18:00 +12°C° 0.1 mm 8 m/S 755 mmHg 76%
    19:00 +12°C° 0.1 mm 7 m/S 755 mmHg 80%
    20:00 +12°C° 0.1 mm 7 m/S 756 mmHg 84%
    21:00 +11°C° 0 mm 7 m/S 756 mmHg 85%
    22:00 +11°C° 0 mm 7 m/S 756 mmHg 86%
    23:00 +11°C° 0 mm 7 m/S 755 mmHg 87%

    Morgen, 21 Juli, Sonntag

    Zeit Temperatur Niederschläge Wind Luftdruck Luftfeuchtigkeit
    00:00 +11°C° 0.1 mm 7 m/S 755 mmHg 87%
    01:00 +11°C° 0.1 mm 8 m/S 755 mmHg 86%
    02:00 +11°C° 0.1 mm 8 m/S 755 mmHg 86%
    03:00 +11°C° 0.1 mm 8 m/S 755 mmHg 86%
    04:00 +11°C° 0.1 mm 8 m/S 754 mmHg 85%
    05:00 +12°C° 0.1 mm 8 m/S 754 mmHg 85%
    06:00 +12°C° 0.1 mm 8 m/S 754 mmHg 85%
    07:00 +12°C° 0.1 mm 8 m/S 754 mmHg 85%
    08:00 +12°C° 0.1 mm 8 m/S 754 mmHg 85%
    09:00 +12°C° 0.2 mm 9 m/S 754 mmHg 83%
    10:00 +12°C° 0.2 mm 9 m/S 754 mmHg 81%
    11:00 +13°C° 0.2 mm 9 m/S 754 mmHg 79%
    12:00 +12°C° 0.3 mm 9 m/S 754 mmHg 81%
    13:00 +12°C° 0.3 mm 9 m/S 753 mmHg 84%
    14:00 +12°C° 0.3 mm 9 m/S 752 mmHg 86%
    15:00 +12°C° 0.2 mm 9 m/S 753 mmHg 84%
    16:00 +12°C° 0.2 mm 9 m/S 753 mmHg 83%
    17:00 +12°C° 0.2 mm 9 m/S 753 mmHg 82%
    18:00 +11°C° 0.3 mm 9 m/S 754 mmHg 80%
    19:00 +11°C° 0.3 mm 10 m/S 754 mmHg 79%
    20:00 +9°C° 0.3 mm 10 m/S 755 mmHg 77%
    21:00 +9°C° 0 mm 10 m/S 755 mmHg 76%
    22:00 +8°C° 0 mm 10 m/S 756 mmHg 76%
    23:00 +8°C° 0 mm 10 m/S 756 mmHg 75%

    übermorgen, 22 Juli, Montag

    Zeit Temperatur Niederschläge Wind Luftdruck Luftfeuchtigkeit
    00:00 +8°C° 0 mm 10 m/S 756 mmHg 74%
    01:00 +8°C° 0 mm 10 m/S 757 mmHg 73%
    02:00 +8°C° 0 mm 9 m/S 757 mmHg 71%
    03:00 +8°C° 0 mm 9 m/S 757 mmHg 71%
    04:00 +7°C° 0 mm 9 m/S 758 mmHg 70%
    05:00 +7°C° 0 mm 9 m/S 758 mmHg 69%
    06:00 +7°C° 0.1 mm 8 m/S 759 mmHg 71%
    07:00 +8°C° 0.1 mm 7 m/S 759 mmHg 74%
    08:00 +8°C° 0.1 mm 7 m/S 760 mmHg 76%
    09:00 +8°C° 0.1 mm 7 m/S 760 mmHg 74%
    10:00 +9°C° 0.1 mm 6 m/S 761 mmHg 73%
    11:00 +9°C° 0.1 mm 6 m/S 761 mmHg 72%
    12:00 +9°C° 0 mm 6 m/S 761 mmHg 70%
    13:00 +10°C° 0 mm 7 m/S 760 mmHg 68%
    14:00 +10°C° 0 mm 7 m/S 760 mmHg 66%
    15:00 +10°C° 0 mm 7 m/S 760 mmHg 67%
    16:00 +9°C° 0 mm 6 m/S 761 mmHg 69%
    17:00 +9°C° 0 mm 6 m/S 761 mmHg 71%
    18:00 +9°C° 0 mm 6 m/S 761 mmHg 72%
    19:00 +9°C° 0 mm 6 m/S 761 mmHg 73%
    20:00 +9°C° 0 mm 6 m/S 761 mmHg 75%
    21:00 +9°C° 0 mm 6 m/S 762 mmHg 76%
    22:00 +10°C° 0 mm 6 m/S 762 mmHg 78%
    23:00 +10°C° 0 mm 6 m/S 762 mmHg 79%

    23 Juli, Dienstag

    Zeit Temperatur Niederschläge Wind Luftdruck Luftfeuchtigkeit
    00:00 +10°C° 0 mm 6 m/S 762 mmHg 80%
    01:00 +10°C° 0 mm 6 m/S 762 mmHg 80%
    02:00 +10°C° 0 mm 6 m/S 762 mmHg 81%
    03:00 +10°C° 0.1 mm 6 m/S 762 mmHg 82%
    04:00 +11°C° 0.1 mm 6 m/S 762 mmHg 83%
    05:00 +11°C° 0.1 mm 6 m/S 762 mmHg 84%
    06:00 +11°C° 0.1 mm 6 m/S 762 mmHg 85%
    07:00 +12°C° 0.1 mm 5 m/S 763 mmHg 86%
    08:00 +12°C° 0.1 mm 5 m/S 763 mmHg 87%
    09:00 +13°C° 0.1 mm 5 m/S 763 mmHg 84%
    10:00 +14°C° 0.1 mm 5 m/S 764 mmHg 81%
    11:00 +14°C° 0.1 mm 5 m/S 764 mmHg 78%
    12:00 +14°C° 0.1 mm 5 m/S 764 mmHg 77%
    13:00 +14°C° 0.1 mm 5 m/S 763 mmHg 76%
    14:00 +15°C° 0.1 mm 4 m/S 763 mmHg 74%
    15:00 +14°C° 0.1 mm 4 m/S 763 mmHg 76%
    16:00 +14°C° 0.1 mm 4 m/S 763 mmHg 78%
    17:00 +13°C° 0.1 mm 3 m/S 764 mmHg 80%
    18:00 +12°C° 0 mm 3 m/S 764 mmHg 83%
    19:00 +11°C° 0 mm 3 m/S 764 mmHg 87%
    20:00 +10°C° 0 mm 3 m/S 765 mmHg 90%
    21:00 +10°C° 0 mm 3 m/S 765 mmHg 90%
    22:00 +10°C° 0 mm 3 m/S 765 mmHg 91%
    23:00 +8°C° 0 mm 4 m/S 765 mmHg 92%

    24 Juli, Mittwoch

    Zeit Temperatur Niederschläge Wind Luftdruck Luftfeuchtigkeit
    00:00 +8°C° 0 mm 4 m/S 764 mmHg 91%
    01:00 +10°C° 0 mm 4 m/S 764 mmHg 90%
    02:00 +10°C° 0 mm 4 m/S 764 mmHg 89%
    03:00 +10°C° 0 mm 4 m/S 764 mmHg 88%
    04:00 +11°C° 0 mm 4 m/S 764 mmHg 86%
    05:00 +11°C° 0 mm 4 m/S 763 mmHg 85%
    06:00 +11°C° 0 mm 4 m/S 764 mmHg 86%
    07:00 +10°C° 0 mm 5 m/S 764 mmHg 86%
    08:00 +10°C° 0 mm 5 m/S 764 mmHg 87%
    09:00 +11°C° 0 mm 6 m/S 764 mmHg 81%
    10:00 +14°C° 0 mm 6 m/S 764 mmHg 75%
    11:00 +15°C° 0 mm 7 m/S 764 mmHg 70%
    12:00 +15°C° 0 mm 7 m/S 763 mmHg 69%
    13:00 +15°C° 0 mm 7 m/S 762 mmHg 69%
    14:00 +16°C° 0 mm 6 m/S 761 mmHg 68%
    15:00 +15°C° 0 mm 6 m/S 762 mmHg 70%
    16:00 +15°C° 0 mm 6 m/S 762 mmHg 71%
    17:00 +15°C° 0 mm 6 m/S 762 mmHg 72%
    18:00 +14°C° 0.2 mm 6 m/S 762 mmHg 75%
    19:00 +13°C° 0.2 mm 6 m/S 762 mmHg 78%
    20:00 +13°C° 0.2 mm 6 m/S 763 mmHg 81%
    21:00 +13°C° 0.2 mm 6 m/S 763 mmHg 83%
    22:00 +12°C° 0.2 mm 5 m/S 763 mmHg 85%
    23:00 +12°C° 0.2 mm 5 m/S 763 mmHg 87%

    25 Juli, Donnerstag

    Zeit Temperatur Niederschläge Wind Luftdruck Luftfeuchtigkeit
    00:00 +10°C° 0.1 mm 5 m/S 763 mmHg 88%
    01:00 +10°C° 0.1 mm 5 m/S 763 mmHg 89%
    02:00 +9°C° 0.1 mm 5 m/S 763 mmHg 90%
    03:00 +11°C° 0.2 mm 4 m/S 763 mmHg 90%
    04:00 +11°C° 0.2 mm 4 m/S 764 mmHg 90%
    05:00 +11°C° 0.2 mm 4 m/S 764 mmHg 91%
    06:00 +11°C° 0.1 mm 4 m/S 765 mmHg 90%
    07:00 +11°C° 0.1 mm 3 m/S 765 mmHg 89%
    08:00 +11°C° 0.1 mm 3 m/S 766 mmHg 87%
    09:00 +12°C° 0 mm 3 m/S 766 mmHg 85%
    10:00 +12°C° 0 mm 3 m/S 766 mmHg 82%
    11:00 +12°C° 0 mm 3 m/S 766 mmHg 80%
    12:00 +12°C° 0 mm 4 m/S 766 mmHg 79%
    13:00 +12°C° 0 mm 4 m/S 766 mmHg 79%
    14:00 +12°C° 0 mm 4 m/S 765 mmHg 78%
    15:00 +12°C° 0 mm 3 m/S 766 mmHg 79%
    16:00 +11°C° 0 mm 3 m/S 766 mmHg 80%
    17:00 +11°C° 0 mm 3 m/S 766 mmHg 80%
    18:00 +11°C° 0 mm 3 m/S 766 mmHg 81%
    19:00 +10°C° 0 mm 3 m/S 766 mmHg 82%
    20:00 +10°C° 0 mm 2 m/S 767 mmHg 82%
    21:00 +10°C° 0 mm 2 m/S 766 mmHg 83%
    22:00 +10°C° 0 mm 2 m/S 766 mmHg 84%
    23:00 +10°C° 0 mm 2 m/S 766 mmHg 85%
    Mehr zeigen